M2 PATHFINDER

Last updated on Dec. 9, 2021, 12:03 a.m. UTC

1 45727U 20037E   21342.38324806  .00000956  00000+0  10084-3 0  9998
2 45727  97.7194 156.5524 0011822 315.2427  44.7860 14.91533245 78348
UTC
Height (km)
Latitude
Longitude
Inclination
Orbital Period
UTC large
Height (km)
Speed (km/s)
/
Latitude / Longitude
Inclination (degrees)
Orbital Period (minutes)
Azimuth
Elevation
Range (km)
Doppler Factor
iOS Compass Heading
iOS Angle